[[{"header":{"parameterUnit":"m.s-1","parameterCategory":1,"la1":30.2991,"la2":30.254,"lo1":-89.0895,"lo2":-89.0444,"dy":0.0017,"dx":0.0017,"nx":28,"ny":28,"refTime":"2025-12-27T03:00:00:Z","depth":0,"parameterNumber":2,"parameterNumberName":"U-component_of_WINDS"},"data":[0,0,0,0,0,0,0,0,0,0,0,0,0,0,0,0,0,0,0,0,0,0,0,0,0,0,0,0,0,0,0,0,0,0,0,0,0,0,0,0,0,0,0,0,0,0,0,0,0,0,0,0,0,0,0,0,0,0,-0.1981,-0.198,0,-0.1937,-0.1937,-0.1936,-0.1948,-0.1948,-0.1949,-0.195,-0.1904,-0.1902,-0.19,0,0,0,0,0,0,0,0,0,0,0,0,0,-0.2073,-0.2071,-0.1981,-0.198,-0.198,-0.1937,-0.1937,-0.1936,-0.1947,-0.1949,-0.195,-0.1951,-0.1904,-0.1902,-0.1899,0,0,0,0,0,0,0,0,0,0,0,0,0,-0.2032,-0.2071,-0.1981,-0.198,-0.198,-0.1937,-0.1937,-0.1936,-0.1947,-0.1949,-0.195,-0.1951,-0.1905,-0.1902,-0.1899,-0.1854,0,0,-0.189,-0.1888,0,0,0,0,0,0,0,0,-0.2034,-0.2028,-0.1981,-0.198,-0.198,-0.1949,-0.1952,-0.1908,-0.1947,-0.1959,-0.195,-0.1952,-0.1918,-0.1914,-0.1903,-0.1852,-0.185,-0.1889,-0.1888,-0.1886,-0.1885,0,0,0,0,0,0,0,-0.2037,-0.203,-0.1963,-0.198,-0.1979,-0.1982,-0.1978,-0.1944,-0.1932,-0.1958,-0.1959,-0.1954,-0.1918,-0.1905,-0.1901,-0.1849,-0.189,-0.1887,-0.1885,-0.1884,-0.1761,-0.1759,0,0,0,0,0,0,-0.204,-0.2032,-0.1965,-0.1962,-0.2011,-0.1979,-0.1974,-0.1958,-0.1932,-0.193,-0.1953,-0.1955,-0.191,-0.1905,-0.19,-0.1846,-0.1886,-0.1883,-0.1882,-0.1762,-0.1761,-0.1759,0,0,0,0,0,0,-0.2042,-0.2034,-0.1966,-0.1997,-0.1989,-0.1976,-0.1957,-0.1956,-0.1944,-0.1928,-0.1926,-0.1943,-0.1911,-0.1904,-0.1866,-0.1844,-0.1882,-0.1879,-0.1764,-0.1762,-0.176,-0.1737,0,0,0,0,0,0,-0.2045,-0.2035,-0.2017,-0.1997,-0.1987,-0.1933,-0.1956,-0.1954,-0.1939,-0.1941,-0.1918,-0.1915,-0.1911,-0.187,-0.1863,-0.1841,-0.1877,-0.1766,-0.1763,-0.176,-0.174,-0.1735,-0.173,0,0,0,0,0,-0.2048,-0.2012,-0.2016,-0.2008,-0.1965,-0.1932,-0.1926,-0.1923,-0.1937,-0.192,-0.191,-0.1916,-0.1849,-0.1866,-0.1858,-0.1835,-0.1767,-0.1764,-0.1761,-0.1742,-0.1736,-0.173,0,0,0,0,0,0,-0.2029,-0.2009,-0.2014,-0.197,-0.1953,-0.1934,-0.1911,-0.1916,-0.1894,-0.1896,-0.1893,-0.1888,-0.1848,-0.1838,-0.1858,-0.1791,-0.181,-0.1805,-0.1799,-0.1792,-0.1788,-0.179,-0.1874,0,0,0,0,0,-0.202,-0.1995,-0.1979,-0.1942,-0.1933,-0.1924,-0.1909,-0.1908,-0.189,-0.1882,-0.1869,-0.1851,-0.1825,-0.1808,-0.1784,-0.1739,-0.1734,-0.1719,-0.1715,-0.1711,-0.1706,-0.1682,-0.1675,-0.1748,-0.1749,-0.1749,0,0,-0.2,-0.1987,-0.197,-0.1938,-0.1924,-0.1898,-0.1917,-0.1888,-0.1869,-0.1877,-0.184,-0.1831,-0.181,-0.1768,-0.1749,-0.1758,-0.1685,-0.1707,-0.1704,-0.1701,-0.1678,-0.1671,-0.1665,-0.1746,-0.1747,-0.1747,0,0,-0.1951,-0.1938,-0.1907,-0.1893,-0.1873,-0.1867,-0.186,-0.1841,-0.1835,-0.1798,-0.1804,-0.1781,-0.1738,-0.1723,-0.1709,-0.1658,-0.1663,-0.165,-0.1624,-0.1601,-0.1595,-0.159,-0.1572,-0.1565,-0.1646,-0.1645,-0.1645,0,-0.1929,-0.189,-0.1889,-0.186,-0.1846,-0.1854,-0.1822,-0.1809,-0.1781,-0.1771,-0.1782,-0.1729,-0.1715,-0.1671,-0.1658,-0.1647,-0.1639,-0.1652,-0.1596,-0.1591,-0.1586,-0.1569,-0.1562,-0.1644,-0.1644,-0.1644,-0.1644,0,-0.1864,-0.1838,-0.1814,-0.1789,-0.1772,-0.1741,-0.1736,-0.1719,-0.1721,-0.1714,-0.1677,-0.1662,-0.1635,-0.1625,-0.1626,-0.1581,-0.1587,-0.1597,-0.1616,-0.1578,-0.1561,-0.1554,-0.1642,-0.1642,-0.1643,-0.1643,0,0,-0.18,-0.1776,-0.1767,-0.1756,-0.1736,-0.1715,-0.1686,-0.166,-0.1646,-0.1628,-0.1603,-0.1567,-0.1577,-0.1562,-0.1561,-0.1541,-0.1501,-0.1554,-0.1553,-0.1544,-0.1451,-0.1443,-0.1436,-0.1506,-0.1504,-0.1503,-0.1453,0,-0.1749,-0.1697,-0.1697,-0.1649,-0.1624,-0.1633,-0.1608,-0.1592,-0.1586,-0.1564,-0.1558,-0.1532,-0.1547,-0.1538,-0.1519,-0.151,-0.1483,-0.1514,-0.1482,-0.1481,-0.1486,-0.1427,-0.1418,-0.1371,-0.1447,-0.1446,-0.1445,0,-0.1681,-0.1662,-0.1612,-0.1597,-0.1587,-0.1563,-0.1541,-0.1521,-0.1504,-0.1501,-0.1485,-0.1488,-0.1459,-0.148,-0.1439,-0.1461,-0.1448,-0.1442,-0.144,-0.1436,-0.1459,-0.1421,-0.1356,-0.1349,-0.1434,-0.1435,-0.1436,0,-0.1639,-0.1601,-0.1566,-0.1557,-0.1538,-0.1521,-0.1513,-0.1497,-0.1483,-0.1464,-0.1454,-0.1432,-0.1419,-0.1401,-0.1398,-0.1414,-0.1358,-0.1378,-0.1354,-0.1354,-0.134,-0.1341,-0.1272,-0.1334,-0.1334,-0.1334,-0.1334,0,-0.1582,-0.1551,-0.1547,-0.1526,-0.1492,-0.1492,-0.1459,-0.1451,-0.1438,-0.1416,-0.1422,-0.1401,-0.1399,-0.1377,-0.1375,-0.1341,-0.1336,-0.1332,-0.1332,-0.1331,-0.1331,-0.1322,-0.1325,-0.1332,-0.1332,-0.1333,-0.1333,0,-0.1528,-0.1524,-0.1487,-0.1473,-0.1469,-0.1445,-0.1432,-0.1412,-0.1408,-0.1379,-0.1373,-0.1365,-0.134,-0.1336,-0.1306,-0.1305,-0.1265,-0.1268,-0.1271,-0.1271,-0.1247,-0.1249,-0.1168,-0.1158,-0.1227,-0.1226,-0.1225,0,-0.1491,-0.1467,-0.1451,-0.1437,-0.1428,-0.1405,-0.1391,-0.1391,-0.1376,-0.1356,-0.1338,-0.1314,-0.1295,-0.1255,-0.1246,-0.1224,-0.1226,-0.12,-0.1223,-0.1223,-0.1225,-0.1226,-0.1224,-0.1195,-0.1194,-0.1193,-0.1193,0,-0.1425,-0.1425,-0.1405,-0.1384,-0.1367,-0.1351,-0.1335,-0.1323,-0.1321,-0.1304,-0.1279,-0.1264,-0.1235,-0.1211,-0.1189,-0.118,-0.1186,-0.1186,-0.1179,-0.1178,-0.118,-0.1178,-0.1258,-0.1188,-0.1188,-0.1188,-0.1189,-0.1189,-0.1379,-0.1359,-0.1345,-0.1322,-0.1311,-0.1296,-0.1277,-0.1271,-0.125,-0.1227,-0.1228,-0.1201,-0.1186,-0.1158,-0.1148,-0.1127,-0.1135,-0.1125,-0.1122,-0.112,-0.1117,-0.1185,-0.1123,-0.1123,-0.1123,-0.1123,-0.1123,0,-0.1313,-0.1305,-0.1285,-0.1263,-0.1246,-0.1255,-0.1238,-0.1223,-0.1199,-0.1185,-0.1166,-0.1138,-0.1116,-0.1107,-0.1085,-0.1069,-0.1072,-0.1063,-0.1064,-0.1062,-0.1111,-0.1119,-0.1062,-0.1062,-0.1062,-0.1062,-0.1062,-0.1062,-0.1277,-0.1244,-0.1243,-0.1205,-0.1197,-0.1171,-0.1161,-0.1148,-0.1137,-0.1106,-0.1087,-0.1082,-0.1071,-0.1048,-0.1028,-0.1026,-0.1017,-0.1008,-0.1007,-0.1052,-0.1058,-0.1064,-0.1072,-0.1006,-0.1006,-0.096,-0.0959,-0.0959]},{"header":{"parameterUnit":"m.s-1","parameterCategory":1,"la1":30.2991,"la2":30.254,"lo1":-89.0895,"lo2":-89.0444,"dy":0.0017,"dx":0.0017,"nx":28,"ny":28,"refTime":"2025-12-27T03:00:00:Z","depth":0,"parameterNumber":3,"parameterNumberName":"V-component_of_WINDS"},"data":[0,0,0,0,0,0,0,0,0,0,0,0,0,0,0,0,0,0,0,0,0,0,0,0,0,0,0,0,0,0,0,0,0,0,0,0,0,0,0,0,0,0,0,0,0,0,0,0,0,0,0,0,0,0,0,0,0,0,3.0578,3.0578,0,3.0633,3.0634,3.0635,3.0637,3.0636,3.0635,3.0635,3.0688,3.069,3.0692,0,0,0,0,0,0,0,0,0,0,0,0,0,3.047,3.0472,3.0578,3.0579,3.0579,3.0633,3.0634,3.0635,3.0637,3.0636,3.0635,3.0634,3.0687,3.0689,3.0692,0,0,0,0,0,0,0,0,0,0,0,0,0,3.052,3.0473,3.0578,3.0587,3.0588,3.0633,3.0634,3.0635,3.0637,3.0636,3.0635,3.0634,3.0686,3.0689,3.0692,3.0731,0,0,3.0702,3.0703,0,0,0,0,0,0,0,0,3.0517,3.0524,3.0585,3.0586,3.0588,3.0627,3.0616,3.0667,3.0637,3.0618,3.0635,3.0633,3.0668,3.0673,3.0685,3.0733,3.0736,3.0702,3.0704,3.0705,3.0706,0,0,0,0,0,0,0,3.0514,3.0522,3.06,3.0586,3.0587,3.0587,3.0593,3.0625,3.0648,3.062,3.062,3.0627,3.0669,3.0682,3.0686,3.0736,3.0702,3.0704,3.0706,3.0707,3.082,3.0821,0,0,0,0,0,0,3.0509,3.0519,3.0598,3.0601,3.055,3.059,3.0596,3.0615,3.0648,3.0652,3.0628,3.0627,3.0677,3.0683,3.0688,3.0736,3.0705,3.0708,3.071,3.0818,3.082,3.0821,0,0,0,0,0,0,3.0507,3.0516,3.0596,3.056,3.057,3.0593,3.0614,3.0617,3.0631,3.0654,3.0657,3.0637,3.0677,3.0684,3.0721,3.0738,3.0709,3.0712,3.0817,3.0819,3.082,3.0832,0,0,0,0,0,0,3.0504,3.0515,3.0531,3.0561,3.0572,3.0628,3.0615,3.0619,3.0636,3.0636,3.0664,3.0667,3.0677,3.0716,3.0724,3.0742,3.0714,3.0816,3.0818,3.082,3.0831,3.0834,3.0838,0,0,0,0,0,3.05,3.0531,3.0532,3.0541,3.0593,3.0629,3.0636,3.0647,3.0638,3.0653,3.0668,3.0666,3.0735,3.072,3.0728,3.0748,3.0815,3.0817,3.082,3.0829,3.0834,3.0837,0,0,0,0,0,0,3.0502,3.0535,3.0536,3.0578,3.0601,3.063,3.065,3.0651,3.0676,3.0674,3.0686,3.0692,3.0729,3.0742,3.0724,3.0787,3.0773,3.0778,3.0778,3.0782,3.0785,3.0782,3.0717,0,0,0,0,0,3.0507,3.0535,3.0563,3.0597,3.0609,3.0627,3.0643,3.065,3.0674,3.0683,3.07,3.0722,3.0749,3.0766,3.0791,3.0832,3.0838,3.0849,3.0853,3.0856,3.086,3.0883,3.0888,3.083,3.083,3.083,0,0,3.0518,3.054,3.0557,3.0598,3.0616,3.0645,3.0635,3.0665,3.0686,3.0687,3.0724,3.0737,3.0762,3.0801,3.0819,3.0813,3.0877,3.0859,3.0861,3.0864,3.0886,3.0891,3.0896,3.0831,3.0831,3.0831,0,0,3.0554,3.0573,3.0604,3.0623,3.0652,3.0664,3.0671,3.07,3.0709,3.0746,3.0748,3.0772,3.0817,3.0836,3.0851,3.0893,3.0893,3.0901,3.0919,3.0942,3.0946,3.095,3.0966,3.0972,3.0904,3.0904,3.0905,0,3.0564,3.0608,3.062,3.0651,3.0668,3.0672,3.0703,3.0721,3.0755,3.0767,3.076,3.0818,3.0834,3.0878,3.0889,3.0901,3.0909,3.0898,3.0945,3.0949,3.0953,3.0968,3.0974,3.0905,3.0905,3.0905,3.0905,0,3.0619,3.0649,3.0671,3.0706,3.0726,3.0757,3.0773,3.0792,3.0796,3.0809,3.0847,3.0867,3.0898,3.0908,3.0912,3.0953,3.0948,3.0943,3.0929,3.0959,3.0974,3.098,3.0907,3.0906,3.0906,3.0906,0,0,3.0657,3.07,3.0707,3.0724,3.0756,3.0779,3.0809,3.084,3.0856,3.088,3.0906,3.0944,3.094,3.0957,3.0963,3.0982,3.1016,3.0975,3.0976,3.0982,3.1062,3.1067,3.1073,3.1015,3.1017,3.1017,3.106,0,3.0697,3.0753,3.0765,3.0813,3.0842,3.0845,3.0872,3.0894,3.0906,3.0931,3.0944,3.0972,3.0963,3.0974,3.0993,3.1008,3.1032,3.1005,3.1039,3.104,3.1034,3.1081,3.1086,3.1125,3.1066,3.1067,3.1068,0,3.0751,3.0778,3.0829,3.0858,3.087,3.0894,3.0924,3.0948,3.0972,3.098,3.0999,3.1004,3.1035,3.1019,3.1062,3.1044,3.1058,3.1067,3.1069,3.1074,3.1057,3.1087,3.1138,3.1144,3.1076,3.1076,3.1075,0,3.0775,3.0824,3.0861,3.0875,3.0909,3.0926,3.0941,3.0964,3.0982,3.1007,3.1019,3.1047,3.1062,3.1083,3.1095,3.1083,3.1137,3.1123,3.1144,3.1144,3.1156,3.1156,3.1211,3.1164,3.1164,3.1164,3.1164,0,3.0819,3.085,3.0873,3.0896,3.0931,3.0944,3.0978,3.0992,3.1013,3.1039,3.1042,3.1066,3.1079,3.1104,3.1113,3.1148,3.1154,3.1161,3.1163,3.1161,3.1161,3.1172,3.117,3.1166,3.1165,3.1165,3.1165,0,3.0852,3.0868,3.091,3.0939,3.0947,3.0972,3.0996,3.1018,3.1031,3.1063,3.1071,3.109,3.112,3.1133,3.1169,3.1175,3.1215,3.1215,3.1207,3.1208,3.123,3.1228,3.1295,3.1305,3.125,3.1251,3.1251,0,3.088,3.0904,3.0937,3.0955,3.097,3.0999,3.1018,3.103,3.105,3.108,3.1098,3.1128,3.1153,3.12,3.1217,3.1245,3.1246,3.1267,3.125,3.1247,3.1247,3.1246,3.1249,3.1271,3.1271,3.1271,3.1272,0,3.0927,3.0934,3.0962,3.0992,3.1015,3.1039,3.1063,3.1077,3.1093,3.1114,3.1146,3.1165,3.1203,3.1233,3.1262,3.1275,3.1277,3.1277,3.1284,3.1283,3.1278,3.1282,3.1217,3.1276,3.1275,3.1275,3.1275,3.1275,3.0959,3.0981,3.1008,3.1039,3.1058,3.108,3.1103,3.1119,3.1145,3.1178,3.1183,3.1217,3.124,3.128,3.1295,3.132,3.1315,3.1324,3.1327,3.1329,3.1331,3.1273,3.1325,3.1325,3.1325,3.1325,3.1325,0,3.1007,3.1025,3.1053,3.1087,3.1111,3.111,3.1137,3.1157,3.1186,3.1209,3.1234,3.127,3.1299,3.1318,3.1347,3.1364,3.1365,3.1371,3.137,3.1374,3.1334,3.1326,3.137,3.137,3.137,3.137,3.137,3.137,3.1036,3.1074,3.1084,3.1132,3.1148,3.1182,3.1197,3.1218,3.1236,3.1276,3.1301,3.1314,3.1335,3.1365,3.1392,3.1396,3.1407,3.1414,3.1418,3.1381,3.1376,3.1372,3.1365,3.1416,3.1416,3.1456,3.1457,3.1457]}]]